START_TIME,STEP,MOV.,M29,t_acc.,H22,t_acc.,H26,t_acc.,H30,t_acc.
1979-07-12 12:00:32.280 ,0,0,0.,24.0,0.,24.0,0.,24.0,0.,24.0
1979-07-12 12:00:56.280 ,1,1,0.,24.0,0.,24.0,0.,24.0,0.,24.0
1979-07-12 12:01:20.280 ,1,0,0.,24.0,0.,24.0,0.,24.0,0.,24.0
1979-07-12 12:01:44.280 ,2,1,0.,24.0,0.,24.0,0.,24.0,0.,24.0
1979-07-12 12:02:08.280 ,2,0,0.,24.0,0.,24.0,0.,24.0,0.,24.0
1979-07-12 12:02:32.280 ,3,1,0.,24.0,0.,24.0,0.,24.0,0.,24.0
1979-07-12 12:02:56.280 ,3,0,0.,24.0,0.,24.0,0.,24.0,0.,24.0
1979-07-12 12:03:20.280 ,4,1,0.,24.0,0.,24.0,0.,24.0,0.,24.0
1979-07-12 12:03:44.280 ,4,0,0.,24.0,0.,24.0,0.,24.0,0.,24.0
1979-07-12 12:04:08.280 ,5,1,0.,24.0,0.,24.0,0.,24.0,0.,24.0
1979-07-12 12:04:32.280 ,5,0,0.,24.0,0.,24.0,0.,24.0,0.,24.0
1979-07-12 12:04:56.280 ,6,1,0.,24.0,0.,24.0,0.,24.0,0.,24.0
1979-07-12 12:05:20.280 ,6,0,0.,24.0,0.,24.0,0.,24.0,0.,24.0
1979-07-12 12:05:44.280 ,7,1,0.,24.0,0.,24.0,0.,24.0,0.,24.0
1979-07-12 12:06:08.280 ,7,0,0.,24.0,0.,24.0,0.,24.0,0.,24.0
1979-07-12 12:06:32.280 ,7,1,0.,24.0,0.,24.0,0.,24.0,0.,24.0
1979-07-12 12:06:56.280 ,7,0,0.,24.0,0.,24.0,0.,24.0,0.,24.0
1979-07-12 12:07:20.280 ,6,1,0.,24.0,0.,24.0,0.,24.0,0.,24.0
1979-07-12 12:07:44.280 ,6,0,0.,24.0,0.,24.0,0.,24.0,0.,24.0
1979-07-12 12:08:08.280 ,5,1,0.,24.0,0.,24.0,0.,24.0,0.,24.0
1979-07-12 12:08:32.280 ,5,0,0.,24.0,0.,24.0,0.,24.0,0.,24.0
1979-07-12 12:08:56.280 ,4,1,0.,24.0,0.,24.0,0.,24.0,0.,24.0
1979-07-12 12:09:20.280 ,4,0,0.,24.0,0.,24.0,0.,24.0,0.,24.0
1979-07-12 12:09:44.280 ,3,1,0.,24.0,0.,24.0,0.,24.0,0.,24.0
1979-07-12 12:10:08.280 ,3,0,0.,24.0,0.,24.0,0.,24.0,0.,24.0
1979-07-12 12:10:32.280 ,2,1,0.,24.0,0.,24.0,0.,24.0,0.,24.0
1979-07-12 12:10:56.280 ,2,0,0.,24.0,0.,24.0,0.,24.0,0.,24.0
1979-07-12 12:11:20.280 ,1,1,0.,24.0,0.,24.0,0.,24.0,0.,24.0
1979-07-12 12:11:44.280 ,1,0,0.,24.0,0.,24.0,0.,24.0,0.,24.0
1979-07-12 12:12:08.280 ,0,1,0.,24.0,0.,24.0,0.,24.0,0.,24.0
1979-07-12 12:12:32.280 ,0,0,0.,24.0,0.,24.0,0.,24.0,0.,24.0
1979-07-12 12:12:56.280 ,0,1,0.,24.0,0.,24.0,0.,24.0,0.,24.0
1979-07-12 12:13:20.280 ,0,0,0.,24.0,0.,24.0,0.,24.0,0.,24.0
1979-07-12 12:13:44.280 ,1,1,0.,24.0,0.,24.0,0.,24.0,0.,24.0
1979-07-12 12:14:08.280 ,1,0,0.,24.0,0.,24.0,0.,24.0,0.,24.0
1979-07-12 12:14:32.280 ,2,1,0.,24.0,0.,24.0,0.,24.0,0.,24.0
1979-07-12 12:14:56.280 ,2,0,0.,24.0,0.,24.0,0.,24.0,0.,24.0
1979-07-12 12:15:20.280 ,3,1,0.,24.0,0.,24.0,0.,24.0,0.,24.0
1979-07-12 12:15:44.280 ,3,0,0.,24.0,0.,24.0,0.,24.0,0.,24.0
1979-07-12 12:16:08.280 ,4,1,0.,24.0,0.,24.0,0.,24.0,0.,24.0
1979-07-12 12:16:32.280 ,4,0,0.,24.0,0.,24.0,0.,24.0,0.,24.0
1979-07-12 12:16:56.280 ,5,1,0.,24.0,0.,24.0,0.,24.0,0.,24.0
1979-07-12 12:17:20.280 ,5,0,0.,24.0,0.,24.0,0.,24.0,0.,24.0
1979-07-12 12:17:44.280 ,6,1,0.,24.0,0.,24.0,0.,24.0,0.,24.0
1979-07-12 12:18:08.280 ,6,0,0.,24.0,0.,24.0,0.,24.0,0.,24.0
1979-07-12 12:18:32.280 ,7,0,0.,24.0,0.,24.0,0.,24.0,0.,24.0
1979-07-12 12:18:56.280 ,7,0,0.,24.0,0.,24.0,0.,24.0,0.,24.0
1979-07-12 12:19:20.280 ,5,1,0.,24.0,0.,24.0,0.,24.0,0.,24.0
1979-07-12 12:19:44.280 ,1,1,0.,24.0,0.,24.0,0.,24.0,0.,24.0
1979-07-12 12:20:08.280 ,2,1,0.,24.0,0.,24.0,0.,24.0,0.,24.0
1979-07-12 12:20:32.280 ,6,1,0.,24.0,0.,24.0,0.,24.0,0.,24.0
1979-07-12 12:20:56.280 ,5,1,0.,24.0,0.,24.0,0.,24.0,0.,24.0
1979-07-12 12:21:20.280 ,1,1,0.,24.0,0.,24.0,0.,24.0,0.,24.0
1979-07-12 12:21:44.280 ,2,1,0.,24.0,0.,24.0,0.,24.0,0.,24.0
1979-07-12 12:22:08.280 ,6,1,0.,24.0,0.,24.0,0.,24.0,0.,24.0
1979-07-12 12:22:32.280 ,5,1,0.,24.0,0.,24.0,0.,24.0,0.,24.0
1979-07-12 12:22:56.280 ,1,1,0.,24.0,0.,24.0,0.,24.0,0.,24.0
1979-07-12 12:23:20.280 ,2,1,0.,24.0,0.,24.0,0.,24.0,0.,24.0
1979-07-12 12:23:44.280 ,6,1,0.,24.0,0.,24.0,0.,24.0,0.,24.0
1979-07-12 12:24:08.280 ,5,1,0.,24.0,0.,24.0,0.,24.0,0.,24.0
1979-07-12 12:24:32.280 ,1,1,0.,24.0,0.,24.0,0.,24.0,0.,24.0
1979-07-12 12:24:56.280 ,2,1,0.,24.0,0.,24.0,0.,24.0,0.,24.0
1979-07-12 12:25:20.280 ,0,0,,0,,0,,0,,0
1979-07-12 12:25:44.280 ,0,0,0.,24.0,0.,24.0,0.,24.0,0.,24.0
1979-07-12 12:26:08.280 ,1,1,0.,24.0,0.,24.0,0.,24.0,0.,24.0
1979-07-12 12:26:32.280 ,2,1,0.,24.0,0.,24.0,0.,24.0,0.,24.0
1979-07-12 12:26:56.280 ,6,1,0.,24.0,0.,24.0,0.,24.0,0.,24.0
1979-07-12 12:27:20.280 ,5,1,0.,24.0,0.,24.0,0.,24.0,0.,24.0
1979-07-12 12:27:44.280 ,1,1,0.,24.0,0.,24.0,0.,24.0,0.,24.0
1979-07-12 12:28:08.280 ,2,1,0.,24.0,0.,24.0,0.,24.0,0.,24.0
1979-07-12 12:28:32.280 ,6,1,0.,24.0,0.,24.0,0.,24.0,0.,24.0
1979-07-12 12:28:56.280 ,5,1,0.,24.0,0.,24.0,0.,24.0,0.,24.0
1979-07-12 12:29:20.280 ,1,1,0.,24.0,0.,24.0,0.,24.0,0.,24.0
1979-07-12 12:29:44.280 ,0,0,0.,24.0,0.,24.0,0.,24.0,0.,24.0
1979-07-12 12:30:08.280 ,0,0,0.,24.0,0.,24.0,0.,24.0,0.,24.0
1979-07-12 12:30:32.280 ,5,1,0.,24.0,0.,24.0,0.,24.0,0.,24.0
1979-07-12 12:30:56.280 ,5,0,0.,24.0,0.,24.0,0.,24.0,0.,24.0
1979-07-12 12:31:20.280 ,4,1,0.,24.0,0.,24.0,0.,24.0,0.,24.0
1979-07-12 12:31:44.280 ,4,0,0.,24.0,0.,24.0,0.,24.0,0.,24.0
1979-07-12 12:32:08.280 ,3,1,0.,24.0,0.,24.0,0.,24.0,0.,24.0
1979-07-12 12:32:32.280 ,3,0,0.,24.0,0.,24.0,0.,24.0,0.,24.0
1979-07-12 12:32:56.280 ,2,1,0.,24.0,0.,24.0,0.,24.0,0.,24.0
1979-07-12 12:33:20.280 ,2,0,0.,24.0,0.,24.0,0.,24.0,0.,24.0
1979-07-12 12:33:44.280 ,1,1,0.,24.0,0.,24.0,0.,24.0,0.,24.0
1979-07-12 12:34:08.280 ,1,0,0.,24.0,0.,24.0,0.,24.0,0.,24.0
1979-07-12 12:34:32.280 ,0,1,0.,24.0,0.,24.0,0.,24.0,0.,24.0
1979-07-12 12:34:56.280 ,0,0,0.,24.0,0.,24.0,0.,24.0,0.,24.0
1979-07-12 12:35:20.280 ,0,1,0.,24.0,0.,24.0,0.,24.0,0.,24.0
1979-07-12 12:35:44.280 ,0,0,0.,24.0,0.,24.0,0.,24.0,0.,24.0
1979-07-12 12:36:08.280 ,1,1,0.,24.0,0.,24.0,0.,24.0,0.,24.0
1979-07-12 12:36:32.280 ,1,0,0.,24.0,0.,24.0,0.,24.0,0.,24.0
1979-07-12 12:36:56.280 ,2,1,0.,24.0,0.,24.0,0.,24.0,0.,24.0
1979-07-12 12:37:20.280 ,0,0,0.,24.0,0.,24.0,0.,24.0,0.,24.0
1979-07-12 12:37:44.280 ,3,1,0.,24.0,0.,24.0,0.,24.0,0.,24.0
1979-07-12 12:38:08.280 ,3,0,0.,24.0,0.,24.0,0.,24.0,0.,24.0
1979-07-12 12:38:32.280 ,4,1,0.,24.0,0.,24.0,0.,24.0,0.,24.0
1979-07-12 12:38:56.280 ,4,0,0.,24.0,0.,24.0,0.,24.0,0.,24.0
1979-07-12 12:39:20.280 ,5,1,0.,24.0,0.,24.0,0.,24.0,0.,24.0
1979-07-12 12:39:44.280 ,5,0,0.,24.0,0.,24.0,0.,24.0,0.,24.0
1979-07-12 12:40:08.280 ,6,1,0.,24.0,0.,24.0,0.,24.0,0.,24.0
1979-07-12 12:40:32.280 ,6,0,0.,24.0,0.,24.0,0.,24.0,0.,24.0
1979-07-12 12:40:56.280 ,7,1,0.,24.0,0.,24.0,0.,24.0,0.,24.0
1979-07-12 12:41:20.280 ,7,0,0.,24.0,0.,24.0,0.,24.0,0.,24.0
1979-07-12 12:41:44.280 ,7,1,0.,24.0,0.,24.0,0.,24.0,0.,24.0
1979-07-12 12:42:08.280 ,7,0,0.,24.0,0.,24.0,0.,24.0,0.,24.0
1979-07-12 12:42:32.280 ,6,1,0.,24.0,0.,24.0,0.,24.0,0.,24.0
1979-07-12 12:42:56.280 ,6,0,0.,24.0,0.,24.0,0.,24.0,0.,24.0
1979-07-12 12:43:20.280 ,5,1,0.,24.0,0.,24.0,0.,24.0,0.,24.0
1979-07-12 12:43:44.280 ,5,0,0.,24.0,0.,24.0,0.,24.0,0.,24.0
1979-07-12 12:44:08.280 ,4,1,0.,24.0,0.,24.0,0.,24.0,0.,24.0
1979-07-12 12:44:32.280 ,4,0,0.,24.0,0.,24.0,0.,24.0,0.,24.0
1979-07-12 12:44:56.280 ,3,1,0.,24.0,0.,24.0,0.,24.0,0.,24.0
1979-07-12 12:45:20.280 ,3,0,0.,24.0,0.,24.0,0.,24.0,0.,24.0
1979-07-12 12:45:44.280 ,2,1,0.,24.0,0.,24.0,0.,24.0,0.,24.0
1979-07-12 12:46:08.280 ,2,0,0.,24.0,0.,24.0,0.,24.0,0.,24.0
1979-07-12 12:46:32.280 ,1,1,0.,24.0,0.,24.0,0.,24.0,0.,24.0
1979-07-12 12:46:56.280 ,1,0,0.,24.0,0.,24.0,0.,24.0,0.,24.0
1979-07-12 12:47:20.280 ,0,1,0.,24.0,0.,24.0,0.,24.0,0.,24.0
1979-07-12 12:47:44.280 ,0,0,0.,24.0,0.,24.0,0.,24.0,0.,24.0
1979-07-12 12:48:08.280 ,0,1,0.,24.0,0.,24.0,0.,24.0,0.,24.0
1979-07-12 12:48:32.280 ,0,0,0.,24.0,0.,24.0,0.,24.0,0.,24.0
1979-07-12 12:48:56.280 ,1,1,0.,24.0,0.,24.0,0.,24.0,0.,24.0
1979-07-12 12:49:20.280 ,1,0,0.,24.0,0.,24.0,0.,24.0,0.,24.0
1979-07-12 12:49:44.280 ,2,1,0.,24.0,0.,24.0,0.,24.0,0.,24.0
1979-07-12 12:50:08.280 ,2,0,0.,24.0,0.,24.0,0.,24.0,0.,24.0
1979-07-12 12:50:32.280 ,3,1,0.,24.0,0.,24.0,0.,24.0,0.,24.0
1979-07-12 12:50:56.280 ,3,0,0.,24.0,0.,24.0,0.,24.0,0.,24.0
1979-07-12 12:51:20.280 ,4,1,0.,24.0,0.,24.0,0.,24.0,0.,24.0
1979-07-12 12:51:44.280 ,4,0,0.,24.0,0.,24.0,0.,24.0,0.,24.0
1979-07-12 12:52:08.280 ,5,1,0.,24.0,0.,24.0,0.,24.0,0.,24.0
1979-07-12 12:52:32.280 ,5,0,0.,24.0,0.,24.0,0.,24.0,0.,24.0
1979-07-12 12:52:56.280 ,6,1,0.,24.0,0.,24.0,0.,24.0,0.,24.0
1979-07-12 12:53:20.280 ,6,0,0.,24.0,0.,24.0,0.,24.0,0.,24.0
1979-07-12 12:53:44.280 ,7,1,0.,24.0,0.,24.0,0.,24.0,0.,24.0
1979-07-12 12:54:08.280 ,7,0,0.,24.0,0.,24.0,0.,24.0,0.,24.0
1979-07-12 12:54:32.280 ,7,1,0.,24.0,0.,24.0,0.,24.0,0.,24.0
1979-07-12 12:54:56.280 ,7,0,0.,24.0,0.,24.0,0.,24.0,0.,24.0
1979-07-12 12:55:20.280 ,6,1,0.,24.0,0.,24.0,0.,24.0,0.,24.0
1979-07-12 12:55:44.280 ,6,0,0.,24.0,0.,24.0,0.,24.0,0.,24.0
1979-07-12 12:56:08.280 ,5,1,0.,24.0,0.,24.0,0.,24.0,0.,24.0
1979-07-12 12:56:32.280 ,5,0,0.,24.0,0.,24.0,0.,24.0,0.,24.0
1979-07-12 12:56:56.280 ,4,1,0.,24.0,0.,24.0,0.,24.0,0.,24.0
1979-07-12 12:57:20.280 ,4,0,0.,24.0,0.,24.0,0.,24.0,0.,24.0
1979-07-12 12:57:44.280 ,3,1,0.,24.0,0.,24.0,0.,24.0,0.,24.0
1979-07-12 12:58:08.280 ,3,0,0.,24.0,0.,24.0,0.,24.0,0.,24.0
1979-07-12 12:58:32.280 ,2,1,0.,24.0,0.,24.0,0.,24.0,0.,24.0
1979-07-12 12:58:56.280 ,2,0,0.,24.0,0.,24.0,0.,24.0,0.,24.0
1979-07-12 12:59:20.280 ,1,1,0.,24.0,0.,24.0,0.,24.0,0.,24.0
1979-07-12 12:59:44.280 ,1,0,0.,24.0,0.,24.0,0.,24.0,0.,24.0
1979-07-12 13:00:08.280 ,0,1,0.,24.0,0.,24.0,0.,24.0,0.,24.0
1979-07-12 13:00:32.280 ,0,0,0.,24.0,0.,24.0,0.,24.0,0.,24.0
1979-07-12 13:00:56.280 ,0,1,0.,24.0,0.,24.0,0.,24.0,0.,24.0
1979-07-12 13:01:20.280 ,0,0,0.,24.0,0.,24.0,0.,24.0,0.,24.0
1979-07-12 13:01:44.280 ,1,1,0.,24.0,0.,24.0,0.,24.0,0.,24.0
1979-07-12 13:02:08.280 ,1,0,0.,24.0,0.,24.0,0.,24.0,0.,24.0
1979-07-12 13:02:32.280 ,2,1,0.,24.0,0.,24.0,0.,24.0,0.,24.0
1979-07-12 13:02:56.280 ,2,0,0.,24.0,0.,24.0,0.,24.0,0.,24.0
1979-07-12 13:03:20.280 ,3,1,0.,24.0,0.,24.0,0.,24.0,0.,24.0
1979-07-12 13:03:44.280 ,3,0,0.,24.0,0.,24.0,0.,24.0,0.,24.0
1979-07-12 13:04:08.280 ,4,1,0.,24.0,0.,24.0,0.,24.0,0.,24.0
1979-07-12 13:04:32.280 ,4,0,0.,24.0,0.,24.0,0.,24.0,0.,24.0
1979-07-12 13:04:56.280 ,5,1,0.,24.0,0.,24.0,0.,24.0,0.,24.0
1979-07-12 13:05:20.280 ,5,0,0.,24.0,0.,24.0,0.,24.0,0.,24.0
1979-07-12 13:05:44.280 ,6,1,0.,24.0,0.,24.0,0.,24.0,0.,24.0
1979-07-12 13:06:08.280 ,6,0,0.,24.0,0.,24.0,0.,24.0,0.,24.0
1979-07-12 13:06:32.280 ,7,0,0.,24.0,0.,24.0,0.,24.0,0.,24.0
1979-07-12 13:06:56.280 ,7,0,0.,24.0,0.,24.0,0.,24.0,0.,24.0
1979-07-12 13:07:20.280 ,5,1,0.,24.0,0.,24.0,0.,24.0,0.,24.0
1979-07-12 13:07:44.280 ,1,1,0.,24.0,0.,24.0,0.,24.0,0.,24.0
1979-07-12 13:08:08.280 ,2,1,0.,24.0,0.,24.0,0.,24.0,0.,24.0
1979-07-12 13:08:32.280 ,6,1,0.,24.0,0.,24.0,0.,24.0,0.,24.0
1979-07-12 13:08:56.280 ,5,1,0.,24.0,0.,24.0,0.,24.0,0.,24.0
1979-07-12 13:09:20.280 ,1,1,0.,24.0,0.,24.0,0.,24.0,0.,24.0
1979-07-12 13:09:44.280 ,2,1,0.,24.0,0.,24.0,0.,24.0,0.,24.0
1979-07-12 13:10:08.280 ,0,0,0.,24.0,0.,24.0,0.,24.0,0.,24.0
1979-07-12 13:10:32.280 ,5,1,0.,24.0,0.,24.0,0.,24.0,0.,24.0
1979-07-12 13:10:56.280 ,1,1,0.,24.0,0.,24.0,0.,24.0,0.,24.0
1979-07-12 13:11:20.280 ,2,1,0.,24.0,0.,24.0,0.,24.0,0.,24.0
1979-07-12 13:11:44.280 ,6,1,0.,24.0,0.,24.0,0.,24.0,0.,24.0
1979-07-12 13:12:08.280 ,5,1,0.,24.0,0.,24.0,0.,24.0,0.,24.0
1979-07-12 13:12:32.280 ,1,1,0.,24.0,0.,24.0,0.,24.0,0.,24.0
1979-07-12 13:12:56.280 ,2,1,0.,24.0,0.,24.0,0.,24.0,0.,24.0
1979-07-12 13:13:20.280 ,6,1,0.,24.0,0.,24.0,0.,24.0,0.,24.0
1979-07-12 13:13:44.280 ,5,1,0.,24.0,0.,24.0,0.,24.0,0.,24.0
1979-07-12 13:14:08.280 ,0,0,,0,,0,,0,,0
1979-07-12 13:14:32.280 ,0,0,0.,24.0,0.,24.0,0.,24.0,0.,24.0
1979-07-12 13:14:56.280 ,6,1,0.,24.0,0.,24.0,0.,24.0,0.,24.0
1979-07-12 13:15:20.280 ,5,1,0.,24.0,0.,24.0,0.,24.0,0.,24.0
1979-07-12 13:15:44.280 ,1,1,0.,24.0,0.,24.0,0.,24.0,0.,24.0
1979-07-12 13:16:08.280 ,2,1,0.,24.0,0.,24.0,0.,24.0,0.,24.0
1979-07-12 13:16:32.280 ,6,1,0.,24.0,0.,24.0,0.,24.0,0.,24.0
1979-07-12 13:16:56.280 ,5,1,0.,24.0,0.,24.0,0.,24.0,0.,24.0
1979-07-12 13:17:20.280 ,1,1,0.,24.0,0.,24.0,0.,24.0,0.,24.0
1979-07-12 13:17:44.280 ,0,0,0.,24.0,0.,24.0,0.,24.0,0.,24.0
1979-07-12 13:18:08.280 ,0,0,0.,24.0,0.,24.0,0.,24.0,0.,24.0
1979-07-12 13:18:32.280 ,5,1,0.,24.0,0.,24.0,0.,24.0,0.,24.0
1979-07-12 13:18:56.280 ,5,0,0.,24.0,0.,24.0,0.,24.0,0.,24.0
1979-07-12 13:19:20.280 ,4,1,0.,24.0,0.,24.0,0.,24.0,0.,24.0
1979-07-12 13:19:44.280 ,4,0,0.,24.0,0.,24.0,0.,24.0,0.,24.0
1979-07-12 13:20:08.280 ,3,1,0.,24.0,0.,24.0,0.,24.0,0.,24.0
1979-07-12 13:20:32.280 ,3,0,0.,24.0,0.,24.0,0.,24.0,0.,24.0
1979-07-12 13:20:56.280 ,2,1,0.,24.0,0.,24.0,0.,24.0,0.,24.0
1979-07-12 13:21:20.280 ,2,0,0.,24.0,0.,24.0,0.,24.0,0.,24.0
1979-07-12 13:21:44.280 ,1,1,0.,24.0,0.,24.0,0.,24.0,0.,24.0
1979-07-12 13:22:08.280 ,1,0,0.,24.0,0.,24.0,0.,24.0,0.,24.0
1979-07-12 13:22:32.280 ,0,1,0.,24.0,0.,24.0,0.,24.0,0.,24.0
1979-07-12 13:22:56.280 ,0,0,0.,24.0,0.,24.0,0.,24.0,0.,24.0
1979-07-12 13:23:20.280 ,0,1,0.,24.0,0.,24.0,0.,24.0,0.,24.0
1979-07-12 13:23:44.280 ,0,0,0.,24.0,0.,24.0,0.,24.0,0.,24.0
1979-07-12 13:24:08.280 ,1,1,0.,24.0,0.,24.0,0.,24.0,0.,24.0
1979-07-12 13:24:32.280 ,1,0,0.,24.0,0.,24.0,0.,24.0,0.,24.0
1979-07-12 13:24:56.280 ,2,1,0.,24.0,0.,24.0,0.,24.0,0.,24.0
1979-07-12 13:25:20.280 ,2,0,0.,24.0,0.,24.0,0.,24.0,0.,24.0
1979-07-12 13:25:44.280 ,3,1,0.,24.0,0.,24.0,0.,24.0,0.,24.0
1979-07-12 13:26:08.280 ,3,0,0.,24.0,0.,24.0,0.,24.0,0.,24.0
1979-07-12 13:26:32.280 ,4,1,0.,24.0,0.,24.0,0.,24.0,0.,24.0
1979-07-12 13:26:56.280 ,4,0,0.,24.0,0.,24.0,0.,24.0,0.,24.0
1979-07-12 13:27:20.280 ,5,1,0.,24.0,0.,24.0,0.,24.0,0.,24.0
1979-07-12 13:27:44.280 ,5,0,0.,24.0,0.,24.0,0.,24.0,0.,24.0
1979-07-12 13:28:08.280 ,6,1,0.,24.0,0.,24.0,0.,24.0,0.,24.0
1979-07-12 13:28:32.280 ,6,0,0.,24.0,0.,24.0,0.,24.0,0.,24.0
1979-07-12 13:28:56.280 ,7,1,0.,24.0,0.,24.0,0.,24.0,0.,24.0
1979-07-12 13:29:20.280 ,7,0,0.,24.0,0.,24.0,0.,24.0,0.,24.0
1979-07-12 13:29:44.280 ,7,1,0.,24.0,0.,24.0,0.,24.0,0.,24.0
1979-07-12 13:30:08.280 ,7,0,0.,24.0,0.,24.0,0.,24.0,0.,24.0
1979-07-12 13:30:32.280 ,6,1,0.,24.0,0.,24.0,0.,24.0,0.,24.0
1979-07-12 13:30:56.280 ,6,0,0.,24.0,0.,24.0,0.,24.0,0.,24.0
1979-07-12 13:31:20.280 ,5,1,0.,24.0,0.,24.0,0.,24.0,0.,24.0
1979-07-12 13:31:44.280 ,5,0,0.,24.0,0.,24.0,0.,24.0,0.,24.0
1979-07-12 13:32:08.280 ,4,1,0.,24.0,0.,24.0,0.,24.0,0.,24.0
1979-07-12 13:32:32.280 ,4,0,0.,24.0,0.,24.0,0.,24.0,0.,24.0
1979-07-12 13:32:56.280 ,3,1,0.,24.0,0.,24.0,0.,24.0,0.,24.0
1979-07-12 13:33:20.280 ,3,0,0.,24.0,0.,24.0,0.,24.0,0.,24.0
1979-07-12 13:33:44.280 ,2,1,0.,24.0,0.,24.0,0.,24.0,0.,24.0
1979-07-12 13:34:08.280 ,2,0,0.,24.0,0.,24.0,0.,24.0,0.,24.0
1979-07-12 13:34:32.280 ,1,1,0.,24.0,0.,24.0,0.,24.0,0.,24.0
1979-07-12 13:34:56.280 ,1,0,0.,24.0,0.,24.0,0.,24.0,0.,24.0
1979-07-12 13:35:20.280 ,0,1,0.,24.0,0.,24.0,0.,24.0,0.,24.0
1979-07-12 13:35:44.280 ,0,0,0.,24.0,0.,24.0,0.,24.0,0.,24.0
1979-07-12 13:36:08.280 ,0,1,0.,24.0,0.,24.0,0.,24.0,0.,24.0
1979-07-12 13:36:32.280 ,0,0,0.,24.0,0.,24.0,0.,24.0,0.,24.0
1979-07-12 13:36:56.280 ,1,1,0.,24.0,0.,24.0,0.,24.0,0.,24.0
1979-07-12 13:38:32.280 ,0,0,0.,24.0,0.,24.0,0.,24.0,0.,24.0
1979-07-12 13:38:56.280 ,0,0,0.,24.0,0.,24.0,0.,24.0,0.,24.0
1979-07-12 13:39:20.280 ,4,1,0.,24.0,0.,24.0,0.,24.0,0.,24.0
1979-07-12 13:39:44.280 ,4,0,0.,24.0,0.,24.0,0.,24.0,0.,24.0
1979-07-12 13:40:08.280 ,5,1,0.,24.0,0.,24.0,0.,24.0,0.,24.0
1979-07-12 13:40:32.280 ,5,0,0.,24.0,0.,24.0,0.,24.0,0.,24.0
1979-07-12 13:40:56.280 ,6,1,0.,24.0,0.,24.0,0.,24.0,0.,24.0
1979-07-12 13:41:20.280 ,6,0,0.,24.0,0.,24.0,0.,24.0,0.,24.0
1979-07-12 13:41:44.280 ,7,1,0.,24.0,0.,24.0,0.,24.0,0.,24.0
1979-07-12 13:42:08.280 ,7,0,0.,24.0,0.,24.0,0.,24.0,0.,24.0
1979-07-12 13:42:32.280 ,7,1,0.,24.0,0.,24.0,0.,24.0,0.,24.0
1979-07-12 13:42:56.280 ,7,0,0.,24.0,0.,24.0,0.,24.0,0.,24.0
1979-07-12 13:43:20.280 ,6,1,0.,24.0,0.,24.0,0.,24.0,0.,24.0
1979-07-12 13:43:44.280 ,6,0,0.,24.0,0.,24.0,0.,24.0,0.,24.0
1979-07-12 13:44:08.280 ,5,1,0.,24.0,0.,24.0,0.,24.0,0.,24.0
1979-07-12 13:44:32.280 ,5,0,0.,24.0,0.,24.0,0.,24.0,0.,24.0
1979-07-12 13:44:56.280 ,4,1,0.,24.0,0.,24.0,0.,24.0,0.,24.0
1979-07-12 13:45:20.280 ,4,0,0.,24.0,0.,24.0,0.,24.0,0.,24.0
1979-07-12 13:45:44.280 ,3,1,0.,24.0,0.,24.0,0.,24.0,0.,24.0
1979-07-12 13:46:08.280 ,3,0,0.,24.0,0.,24.0,0.,24.0,0.,24.0
1979-07-12 13:46:32.280 ,0,0,0.,24.0,0.,24.0,0.,24.0,0.,24.0
1979-07-12 13:46:56.280 ,0,0,0.,24.0,0.,24.0,0.,24.0,0.,24.0
1979-07-12 13:47:20.280 ,0,0,0.,24.0,0.,24.0,0.,24.0,0.,24.0
1979-07-12 13:47:44.280 ,0,0,0.,24.0,0.,24.0,0.,24.0,0.,24.0
1979-07-12 13:48:08.280 ,0,1,0.,24.0,0.,24.0,0.,24.0,0.,24.0
1979-07-12 13:48:32.280 ,0,0,0.,24.0,0.,24.0,0.,24.0,0.,24.0
1979-07-12 13:48:56.280 ,0,1,0.,24.0,0.,24.0,0.,24.0,0.,24.0
1979-07-12 13:49:20.280 ,0,0,0.,24.0,0.,24.0,0.,24.0,0.,24.0
1979-07-12 13:49:44.280 ,1,1,0.,24.0,0.,24.0,0.,24.0,0.,24.0
1979-07-12 13:50:08.280 ,1,0,0.,24.0,0.,24.0,0.,24.0,0.,24.0
1979-07-12 13:50:32.280 ,2,1,0.,24.0,0.,24.0,0.,24.0,0.,24.0
1979-07-12 13:50:56.280 ,2,0,0.,24.0,0.,24.0,0.,24.0,0.,24.0
1979-07-12 13:51:20.280 ,3,1,0.,24.0,0.,24.0,0.,24.0,0.,24.0
1979-07-12 13:51:44.280 ,3,0,0.,24.0,0.,24.0,0.,24.0,0.,24.0
1979-07-12 13:52:08.280 ,4,1,0.,24.0,0.,24.0,0.,24.0,0.,24.0
1979-07-12 13:52:32.280 ,4,0,0.,24.0,0.,24.0,0.,24.0,0.,24.0
1979-07-12 13:52:56.280 ,5,1,0.,24.0,0.,24.0,0.,24.0,0.,24.0
1979-07-12 13:53:20.280 ,5,0,0.,24.0,0.,24.0,0.,24.0,0.,24.0
1979-07-12 13:53:44.280 ,6,1,0.,24.0,0.,24.0,0.,24.0,0.,24.0
1979-07-12 13:54:08.280 ,6,0,0.,24.0,0.,24.0,0.,24.0,0.,24.0
1979-07-12 13:54:32.280 ,7,0,0.,24.0,0.,24.0,0.,24.0,0.,24.0
1979-07-12 13:54:56.280 ,7,0,0.,24.0,0.,24.0,0.,24.0,0.,24.0
1979-07-12 13:55:20.280 ,5,1,0.,24.0,0.,24.0,0.,24.0,0.,24.0
1979-07-12 13:55:44.280 ,1,1,0.,24.0,0.,24.0,0.,24.0,0.,24.0
1979-07-12 13:56:08.280 ,2,1,0.,24.0,0.,24.0,0.,24.0,0.,24.0
1979-07-12 13:56:32.280 ,6,1,0.,24.0,0.,24.0,0.,24.0,0.,24.0
1979-07-12 13:56:56.280 ,5,1,0.,24.0,0.,24.0,0.,24.0,0.,24.0
1979-07-12 13:57:20.280 ,1,1,0.,24.0,0.,24.0,0.,24.0,0.,24.0
1979-07-12 13:57:44.280 ,2,1,0.,24.0,0.,24.0,0.,24.0,0.,24.0
1979-07-12 13:58:08.280 ,6,1,0.,24.0,0.,24.0,0.,24.0,0.,24.0
1979-07-12 13:58:32.280 ,5,1,0.,24.0,0.,24.0,0.,24.0,0.,24.0
1979-07-12 13:58:56.280 ,1,1,0.,24.0,0.,24.0,0.,24.0,0.,24.0
1979-07-12 13:59:20.280 ,2,1,0.,24.0,0.,24.0,0.,24.0,0.,24.0
1979-07-12 13:59:44.280 ,6,1,0.,24.0,0.,24.0,0.,24.0,0.,24.0
1979-07-12 14:00:08.280 ,5,1,0.,24.0,0.,24.0,0.,24.0,0.,24.0
1979-07-12 14:00:32.280 ,1,1,0.,24.0,0.,24.0,0.,24.0,0.,24.0
1979-07-12 14:00:56.280 ,2,1,0.,24.0,0.,24.0,0.,24.0,0.,24.0
1979-07-12 14:01:20.280 ,6,1,0.,24.0,0.,24.0,0.,24.0,0.,24.0
1979-07-12 14:01:44.280 ,5,1,0.,24.0,0.,24.0,0.,24.0,0.,24.0
1979-07-12 14:02:08.280 ,1,1,0.,24.0,0.,24.0,0.,24.0,0.,24.0
1979-07-12 14:02:32.280 ,2,1,0.,24.0,0.,24.0,0.,24.0,0.,24.0
1979-07-12 14:02:56.280 ,6,1,0.,24.0,0.,24.0,0.,24.0,0.,24.0
1979-07-12 14:03:20.280 ,5,1,0.,24.0,0.,24.0,0.,24.0,0.,24.0
1979-07-12 14:03:44.280 ,1,1,0.,24.0,0.,24.0,0.,24.0,0.,24.0
1979-07-12 14:04:08.280 ,2,1,0.,24.0,0.,24.0,0.,24.0,0.,24.0
1979-07-12 14:04:32.280 ,6,1,0.,24.0,0.,24.0,0.,24.0,0.,24.0
1979-07-12 14:04:56.280 ,5,1,0.,24.0,0.,24.0,0.,24.0,0.,24.0
1979-07-12 14:05:20.280 ,1,1,0.,24.0,0.,24.0,0.,24.0,0.,24.0
1979-07-12 14:05:44.280 ,0,0,0.,24.0,0.,24.0,0.,24.0,0.,24.0
1979-07-12 14:06:08.280 ,0,0,0.,24.0,0.,24.0,0.,24.0,0.,24.0
1979-07-12 14:06:32.280 ,5,1,0.,24.0,0.,24.0,0.,24.0,0.,24.0
1979-07-12 14:06:56.280 ,5,0,0.,24.0,0.,24.0,0.,24.0,0.,24.0
1979-07-12 14:07:20.280 ,4,1,0.,24.0,0.,24.0,0.,24.0,0.,24.0
1979-07-12 14:07:44.280 ,4,0,0.,24.0,0.,24.0,0.,24.0,0.,24.0
1979-07-12 14:08:08.280 ,3,1,0.,24.0,0.,24.0,0.,24.0,0.,24.0
1979-07-12 14:08:32.280 ,3,0,0.,24.0,0.,24.0,0.,24.0,0.,24.0
1979-07-12 14:08:56.280 ,2,1,0.,24.0,0.,24.0,0.,24.0,0.,24.0
1979-07-12 14:09:20.280 ,2,0,0.,24.0,0.,24.0,0.,24.0,0.,24.0
1979-07-12 14:09:44.280 ,1,1,0.,24.0,0.,24.0,0.,24.0,0.,24.0
1979-07-12 14:10:08.280 ,1,0,0.,24.0,0.,24.0,0.,24.0,0.,24.0
1979-07-12 14:10:32.280 ,0,1,0.,24.0,0.,24.0,0.,24.0,0.,24.0
1979-07-12 14:10:56.280 ,0,0,0.,24.0,0.,24.0,0.,24.0,0.,24.0
1979-07-12 14:11:20.280 ,0,1,0.,24.0,0.,24.0,0.,24.0,0.,24.0
1979-07-12 14:11:44.280 ,0,0,0.,24.0,0.,24.0,0.,24.0,0.,24.0
1979-07-12 14:12:08.280 ,1,1,0.,24.0,0.,24.0,0.,24.0,0.,24.0
1979-07-12 14:12:32.280 ,1,0,0.,24.0,0.,24.0,0.,24.0,0.,24.0
1979-07-12 14:12:56.280 ,2,1,0.,24.0,0.,24.0,0.,24.0,0.,24.0
1979-07-12 14:13:20.280 ,2,0,0.,24.0,0.,24.0,0.,24.0,0.,24.0
1979-07-12 14:13:44.280 ,3,1,0.,24.0,0.,24.0,0.,24.0,0.,24.0
1979-07-12 14:14:08.280 ,3,0,0.,24.0,0.,24.0,0.,24.0,0.,24.0
1979-07-12 14:14:32.280 ,4,1,0.,24.0,0.,24.0,0.,24.0,0.,24.0
1979-07-12 14:14:56.280 ,4,0,0.,24.0,0.,24.0,0.,24.0,0.,24.0
1979-07-12 14:15:20.280 ,5,1,0.,24.0,0.,24.0,0.,24.0,0.,24.0
1979-07-12 14:15:44.280 ,5,0,0.,24.0,0.,24.0,0.,24.0,0.,24.0
1979-07-12 14:16:08.280 ,6,1,0.,24.0,0.,24.0,0.,24.0,0.,24.0
1979-07-12 14:16:32.280 ,6,0,0.,24.0,0.,24.0,0.,24.0,0.,24.0
1979-07-12 14:16:56.280 ,7,1,0.,24.0,0.,24.0,0.,24.0,0.,24.0
1979-07-12 14:17:20.280 ,7,0,0.,24.0,0.,24.0,0.,24.0,0.,24.0
1979-07-12 14:17:44.280 ,7,1,0.,24.0,0.,24.0,0.,24.0,0.,24.0
1979-07-12 14:18:08.280 ,7,0,0.,24.0,0.,24.0,0.,24.0,0.,24.0
1979-07-12 14:18:32.280 ,6,1,0.,24.0,0.,24.0,0.,24.0,0.,24.0
1979-07-12 14:18:56.280 ,6,0,0.,24.0,0.,24.0,0.,24.0,0.,24.0
1979-07-12 14:19:20.280 ,5,1,0.,24.0,0.,24.0,0.,24.0,0.,24.0
1979-07-12 14:19:44.280 ,5,0,0.,24.0,0.,24.0,0.,24.0,0.,24.0
1979-07-12 14:20:08.280 ,4,1,0.,24.0,0.,24.0,0.,24.0,0.,24.0
1979-07-12 14:20:32.280 ,4,0,0.,24.0,0.,24.0,0.,24.0,0.,24.0
1979-07-12 14:20:56.280 ,3,1,0.,24.0,0.,24.0,0.,24.0,0.,24.0
1979-07-12 14:21:20.280 ,3,0,0.,24.0,0.,24.0,0.,24.0,0.,24.0
1979-07-12 14:21:44.280 ,2,1,0.,24.0,0.,24.0,0.,24.0,0.,24.0
1979-07-12 14:22:08.280 ,2,0,0.,24.0,0.,24.0,0.,24.0,0.,24.0
1979-07-12 14:22:32.280 ,1,1,0.,24.0,0.,24.0,0.,24.0,0.,24.0
1979-07-12 14:22:56.280 ,1,0,0.,24.0,0.,24.0,0.,24.0,0.,24.0
1979-07-12 14:23:20.280 ,0,1,0.,24.0,0.,24.0,0.,24.0,0.,24.0
1979-07-12 14:23:44.280 ,0,0,0.,24.0,0.,24.0,0.,24.0,0.,24.0
1979-07-12 14:24:08.280 ,0,1,0.,24.0,0.,24.0,0.,24.0,0.,24.0
1979-07-12 14:24:32.280 ,0,0,0.,24.0,0.,24.0,0.,24.0,0.,24.0
1979-07-12 14:24:56.280 ,1,1,0.,24.0,0.,24.0,0.,24.0,0.,24.0
1979-07-12 14:25:20.280 ,1,0,0.,24.0,0.,24.0,0.,24.0,0.,24.0
1979-07-12 14:25:44.280 ,2,1,0.,24.0,0.,24.0,0.,24.0,0.,24.0
1979-07-12 14:26:08.280 ,2,0,0.,24.0,0.,24.0,0.,24.0,0.,24.0
1979-07-12 14:26:32.280 ,3,1,0.,24.0,0.,24.0,0.,24.0,0.,24.0
1979-07-12 14:26:56.280 ,3,0,0.,24.0,0.,24.0,0.,24.0,0.,24.0
1979-07-12 14:27:20.280 ,4,1,0.,24.0,0.,24.0,0.,24.0,0.,24.0
1979-07-12 14:27:44.280 ,4,0,0.,24.0,0.,24.0,0.,24.0,0.,24.0
1979-07-12 14:28:08.280 ,5,1,0.,24.0,0.,24.0,0.,24.0,0.,24.0
1979-07-12 14:28:32.280 ,5,0,0.,24.0,0.,24.0,0.,24.0,0.,24.0
1979-07-12 14:28:56.280 ,6,1,0.,24.0,0.,24.0,0.,24.0,0.,24.0
1979-07-12 14:29:20.280 ,6,0,0.,24.0,0.,24.0,0.,24.0,0.,24.0
1979-07-12 14:29:44.280 ,7,1,0.,24.0,0.,24.0,0.,24.0,0.,24.0
1979-07-12 14:30:08.280 ,7,0,0.,24.0,0.,24.0,0.,24.0,0.,24.0
1979-07-12 14:30:32.280 ,7,1,0.,24.0,0.,24.0,0.,24.0,0.,24.0
1979-07-12 14:30:56.280 ,7,0,0.,24.0,0.,24.0,0.,24.0,0.,24.0
1979-07-12 14:31:20.280 ,6,1,0.,24.0,0.,24.0,0.,24.0,0.,24.0
1979-07-12 14:31:44.280 ,6,0,0.,24.0,0.,24.0,0.,24.0,0.,24.0
1979-07-12 14:32:08.280 ,5,1,0.,24.0,0.,24.0,0.,24.0,0.,24.0
1979-07-12 14:32:32.280 ,5,0,0.,24.0,0.,24.0,0.,24.0,0.,24.0
1979-07-12 14:32:56.280 ,4,1,0.,24.0,0.,24.0,0.,24.0,0.,24.0
1979-07-12 14:33:20.280 ,4,0,0.,24.0,0.,24.0,0.,24.0,0.,24.0
1979-07-12 14:33:44.280 ,3,1,0.,24.0,0.,24.0,0.,24.0,0.,24.0
1979-07-12 14:34:08.280 ,3,0,0.,24.0,0.,24.0,0.,24.0,0.,24.0
1979-07-12 14:34:32.280 ,2,1,0.,24.0,0.,24.0,0.,24.0,0.,24.0
1979-07-12 14:34:56.280 ,2,0,0.,24.0,0.,24.0,0.,24.0,0.,24.0
1979-07-12 14:35:20.280 ,1,1,0.,24.0,0.,24.0,0.,24.0,0.,24.0
1979-07-12 14:35:44.280 ,1,0,0.,24.0,0.,24.0,0.,24.0,0.,24.0